Location: Unspecified
(58.9933°N, 5.6375°E)
Time: 06:25:49
(UTC+02:00)

Okean 3 - Visible Passes

Search period start: 29 March 2015 00:00
Search period end: 08 April 2015 01:00
Orbit: 580 x 607 km, 82.5° (Epoch: 27 March)

Date Brightness Start Highest point End Pass type
(mag) Time Alt. Az. Time Alt. Az. Time Alt. Az.
29 Mar 4.2 01:34:35 52° NNE 01:34:35 52° NNE 01:37:50 10° NNE visible
29 Mar 5.3 04:11:11 19° WNW 04:11:34 19° NW 04:14:36 10° N visible
30 Mar 5.6 01:07:10 18° ENE 01:07:10 18° ENE 01:09:09 10° NE visible
30 Mar 4.0 02:43:47 54° NNW 02:43:47 54° NNW 02:47:12 10° N visible
30 Mar 5.5 04:20:24 14° WNW 04:21:12 15° NW 04:23:38 10° NNW visible
31 Mar 5.2 01:16:22 24° ENE 01:16:22 24° ENE 01:18:49 10° NNE visible
31 Mar 4.1 02:52:58 47° NW 02:52:58 47° NW 02:56:31 10° N visible
31 Mar 5.8 04:29:35 11° WNW 04:30:52 12° NW 04:32:26 10° NNW visible
01 Apr 4.9 01:25:32 31° ENE 01:25:32 31° ENE 01:28:22 10° NNE visible
01 Apr 4.4 03:02:09 37° NW 03:02:09 37° NW 03:05:49 10° N visible
02 Apr 4.4 01:34:42 41° NE 01:34:42 41° NE 01:37:51 10° NNE visible
02 Apr 4.8 03:11:19 29° WNW 03:11:21 29° WNW 03:15:03 10° N visible
03 Apr 5.9 00:07:14 12° ENE 00:07:14 12° ENE 00:08:11 10° NE visible
03 Apr 4.0 01:43:51 54° NE 01:43:51 54° NE 01:47:16 10° NNE visible
03 Apr 5.1 03:20:28 22° WNW 03:20:53 23° WNW 03:24:14 10° N visible
04 Apr 5.6 00:16:23 16° ENE 00:16:23 16° ENE 00:18:16 10° NE visible
04 Apr 3.7 01:52:59 66° N 01:52:59 66° N 01:56:39 10° NNE visible
04 Apr 5.4 03:29:36 17° WNW 03:30:28 18° NW 03:33:20 10° N visible
05 Apr 5.2 00:25:30 21° ENE 00:25:30 21° ENE 00:28:02 10° NE visible
05 Apr 3.8 02:02:06 61° NW 02:02:06 61° NW 02:05:58 10° N visible
05 Apr 5.7 03:38:43 13° WNW 03:40:03 14° NW 03:42:17 10° NNW visible
06 Apr 4.8 00:34:36 28° ENE 00:34:36 28° ENE 00:37:38 10° NNE visible
06 Apr 4.1 02:11:12 47° WNW 02:11:12 47° WNW 02:15:16 10° N visible
06 Apr 6.0 03:48:21 10° WNW 03:49:42 11° NW 03:50:55 10° NNW visible
07 Apr 4.3 00:43:41 37° ENE 00:43:41 37° ENE 00:47:08 10° NNE visible
07 Apr 4.5 02:20:18 35° WNW 02:20:37 35° WNW 02:24:31 10° N visible
08 Apr 3.8 00:52:45 52° ENE 00:52:45 52° ENE 00:56:34 10° NNE visible
